FW7898 Weather Reports


time (UTC)temp
F
wind
direction
speed
knots
gust
knots
rain 1hr
in
rain 24hr
in
rain mn
in
humidity
%
barometer
mb
20260507094557 54 0 0.0 0.0 0.00 0.00 0.00 70 1011.6
20260507093058 54 0 0.0 0.0 0.00 0.00 0.00 70 1011.6
20260507091606 54 0 0.0 0.0 0.00 0.00 0.00 69 1011.7
20260507090056 54 0 0.0 0.9 0.00 0.00 0.00 67 1011.7
20260507084559 54 0 0.0 0.0 0.00 0.00 0.00 66 1011.8
20260507083102 55 0 0.0 0.0 0.00 0.00 0.00 65 1011.9
20260507081559 55 0 0.0 0.0 0.00 0.00 0.00 63 1011.9
20260507080135 56 0 0.0 0.0 0.00 0.00 0.00 62 1012.1
20260507074605 57 0 0.0 0.9 0.00 0.00 0.00 61 1012.2
20260507073111 58 0 0.0 0.0 0.00 0.00 0.00 59 1012.3
20260507071606 58 0 0.0 0.9 0.00 0.00 0.00 56 1012.3
20260507070057 60 0 0.0 0.9 0.00 0.00 0.00 55 1012.3
20260507064600 58 0 0.0 0.9 0.00 0.00 0.00 55 1012.2
20260507063102 58 0 0.0 0.0 0.00 0.00 0.00 55 1012.1
20260507061559 59 0 0.0 0.0 0.00 0.00 0.00 54 1012.2
20260507060103 61 0 0.0 0.0 0.00 0.00 0.00 50 1012.3
20260507054605 62 0 0.0 0.0 0.00 0.00 0.00 46 1012.4
20260507053100 63 0 0.0 0.0 0.00 0.00 0.00 45 1012.3
20260507051601 63 0 0.0 0.0 0.00 0.00 0.00 44 1012.3
20260507050100 64 0 0.0 0.0 0.00 0.00 0.00 44 1012.3
20260507044623 65 0 0.0 0.9 0.00 0.00 0.00 45 1012.2
20260507043058 65 0 0.0 0.9 0.00 0.00 0.00 48 1012.1
20260507041604 64 0 0.0 0.9 0.00 0.00 0.00 48 1012.0
20260507040110 64 0 0.0 0.0 0.00 0.00 0.00 50 1012.0
20260507034603 66 0 0.0 0.0 0.00 0.00 0.00 48 1011.7
20260507033058 68 0 0.0 0.0 0.00 0.00 0.00 45 1011.6
20260507031602 71 0 0.0 0.0 0.00 0.00 0.00 42 1011.6
20260507030100 72 0 0.0 0.9 0.00 0.00 0.00 38 1011.3
20260507024602 74 263 0.0 1.7 0.00 0.00 0.00 37 1011.2
20260507023100 75 263 0.9 5.2 0.00 0.00 0.00 37 1011.3
20260507021558 75 263 2.6 9.6 0.00 0.00 0.00 37 1011.3
20260507020104 76 360 4.3 11.3 0.00 0.00 0.00 37 1011.3
20260507014608 77 360 4.3 10.4 0.00 0.00 0.00 41 1011.3
20260507013059 77 360 7.0 11.3 0.00 0.00 0.00 41 1011.2
20260507011604 77 360 7.0 12.2 0.00 0.00 0.00 39 1011.1
20260507010059 77 360 5.2 12.2 0.00 0.00 0.00 39 1011.1
20260507004602 77 360 8.7 13.9 0.00 0.00 0.00 39 1011.2
20260507003100 78 360 10.4 15.6 0.00 0.00 0.00 39 1011.1
20260507001614 78 360 9.6 14.8 0.00 0.00 0.00 39 1010.9
20260506234603 78 360 10.4 15.6 0.00 0.00 0.00 41 1011.0
20260506233059 78 360 11.3 15.6 0.00 0.00 0.00 42 1010.9
20260506231559 78 360 10.4 17.4 0.00 0.00 0.00 45 1011.2
20260506230059 78 360 11.3 17.4 0.00 0.00 0.00 44 1011.4
20260506224559 79 360 8.7 13.9 0.00 0.00 0.00 42 1011.3
20260506223057 79 360 9.6 15.6 0.00 0.00 0.00 39 1011.3
20260506221601 80 360 9.6 15.6 0.00 0.00 0.00 40 1011.5
20260506220108 80 360 8.7 14.8 0.00 0.00 0.00 38 1011.7
20260506214557 81 360 7.0 16.5 0.00 0.00 0.00 40 1012.0
20260506213102 80 360 7.0 15.6 0.00 0.00 0.00 39 1012.1
20260506211558 80 360 7.0 14.8 0.00 0.00 0.00 39 1012.1
20260506210120 81 360 6.1 11.3 0.00 0.00 0.00 36 1012.2
20260506204558 81 360 8.7 13.9 0.00 0.00 0.00 37 1012.3
20260506203141 81 360 8.7 15.6 0.00 0.00 0.00 38 1012.4
20260506201558 82 360 7.0 13.9 0.00 0.00 0.00 37 1012.5
20260506200059 81 360 6.1 16.5 0.00 0.00 0.00 37 1012.3
20260506194558 82 258 7.0 13.0 0.00 0.00 0.00 35 1012.7
20260506193057 82 291 3.5 7.8 0.00 0.00 0.00 27 1013.0
20260506191605 81 299 1.7 8.7 0.00 0.00 0.00 29 1013.0
20260506190100 80 0 0.0 7.0 0.00 0.00 0.00 29 1013.2
20260506184601 81 287 0.9 11.3 0.00 0.00 0.00 29 1013.3
20260506183111 80 0 3.5 7.0 0.00 0.00 0.00 30 1013.5
20260506181601 80 0 0.0 2.6 0.00 0.00 0.00 30 1013.7
20260506174609 78 306 1.7 7.0 0.00 0.00 0.00 31 1013.8
20260506173059 77 309 0.0 7.0 0.00 0.00 0.00 32 1013.8
20260506171610 77 0 0.0 4.3 0.00 0.00 0.00 34 1013.8
20260506170100 77 308 0.9 7.0 0.00 0.00 0.00 35 1014.0
20260506164601 76 360 0.0 3.5 0.00 0.00 0.00 36 1013.8
20260506163133 75 360 0.9 3.5 0.00 0.00 0.00 39 1013.8
20260506161557 74 0 1.7 5.2 0.00 0.00 0.00 41 1013.5
20260506154557 72 360 1.7 5.2 0.00 0.00 0.00 45 1013.4
20260506153119 71 360 0.9 7.0 0.00 0.00 0.00 47 1013.5
20260506151558 70 360 1.7 8.7 0.00 0.00 0.00 50 1013.5
20260506150056 69 360 1.7 8.7 0.00 0.00 0.00 52 1013.3
20260506144558 68 265 1.7 7.8 0.00 0.00 0.00 53 1013.4
20260506143058 66 0 0.9 6.1 0.00 0.00 0.00 54 1013.4
20260506141555 64 0 0.0 1.7 0.00 0.00 0.00 58 1013.2
20260506140057 61 239 0.0 2.6 0.00 0.00 0.00 66 1013.5
20260506134556 58 0 0.0 0.9 0.00 0.00 0.00 75 1013.1
20260506133100 54 0 0.0 0.9 0.00 0.00 0.00 78 1013.1
20260506131608 51 0 0.0 0.0 0.00 0.00 0.00 78 1012.8
20260506130059 50 0 0.0 0.0 0.00 0.00 0.00 79 1012.7
20260506124608 50 0 0.0 0.0 0.00 0.00 0.00 79 1012.4
20260506123114 50 0 0.0 0.0 0.00 0.00 0.00 79 1012.2
20260506121613 51 0 0.0 0.0 0.00 0.00 0.00 79 1012.3
20260506120058 51 0 0.0 0.0 0.00 0.00 0.00 78 1012.2
20260506114610 51 0 0.0 0.0 0.00 0.00 0.00 78 1012.0
20260506113058 51 0 0.0 0.0 0.00 0.00 0.00 78 1011.9
20260506111602 51 0 0.0 0.0 0.00 0.00 0.00 78 1012.0
20260506110104 52 0 0.0 0.0 0.00 0.00 0.00 78 1012.0
20260506104607 53 0 0.0 0.0 0.00 0.00 0.00 78 1012.0
20260506103106 53 0 0.0 0.0 0.00 0.00 0.00 77 1011.9
20260506101637 53 0 0.0 0.9 0.00 0.00 0.00 77 1012.0
20260506100100 53 0 0.0 0.9 0.00 0.00 0.00 77 1011.9